Tracking 20621 objects as of 30-Mar-2020
HD Live streaming from Space Station
objects crossing your sky now

EXPLORER 30

Track EXPLORER 30 now!
10-day predictions
EXPLORER 30 is classified as:


NORAD ID: 1738
Int'l Code: 1965-093A
Perigee: 665.0 km
Apogee: 864.8 km
Inclination: 59.7 °
Period: 100.0 minutes
Semi major axis: 7135 km
RCS: 0.3725 m2 (medium)
Launch date: November 19, 1965
Source: United States (US)
Launch site: WALLOPS ISLAND (WLPIS)
aabbcc
Your satellite tracking list
Your tracking list is empty




NASA's NSSDC Master Catalog

Two Line Element Set (TLE):
1  1738U 65093A   20089.82485747 -.00000118 +00000-0 +11373-4 0  9996
2  1738 059.7091 035.8617 0140006 117.6176 243.9157 14.40214979829294
Source of the keplerian elements: AFSPC